Lid_Strength_Index
1 1 0 0 -0 -0 -0 -0 -0 0 1 1 2 2 2 2 3 8 10 6 4 1 2 6 9 9 8 10 10 12 15 17 16 16 15 14 14 14 14 14 14 13 11 10 10
0 0 0 0 0 0 0 -0 -0 0 0 1 2 2 2 2 9 11 7 2 2 2 8 10 11 10 12 12 12 14 16 15 16 16 16 14 14 15 15 15 15 13 11 10 10
0 0 0 0 0 0 0 -0 0 1 1 1 3 2 2 4 11 12 4 2 1 2 8 8 10 11 13 12 13 13 15 15 15 13 14 14 14 14 15 15 14 14 12 11 11
0 0 0 0 1 0 0 0 1 1 1 2 3 2 3 8 15 10 4 3 2 6 8 9 11 13 13 14 12 15 14 13 13 13 14 14 13 14 15 14 13 13 10 10 11
0 0 1 1 1 1 1 1 1 2 2 2 2 2 7 13 13 8 4 5 7 8 10 11 13 13 14 13 13 14 13 12 13 13 14 13 15 14 14 13 13 11 10 10 11
1 1 1 1 1 2 1 1 1 2 3 3 2 2 11 14 10 9 9 7 8 9 10 10 13 12 13 14 15 13 13 13 12 13 12 14 15 14 14 13 13 11 10 10 10
1 1 1 2 2 2 2 1 2 2 3 4 3 8 12 13 10 10 9 9 8 9 11 10 10 12 13 14 12 13 15 14 14 13 13 13 15 15 14 13 13 12 10 10 10
1 2 2 1 2 2 2 1 1 3 3 3 4 11 15 10 11 10 9 9 8 8 9 10 10 11 13 13 13 15 15 18 14 14 13 15 16 14 14 14 13 13 13 11 10
2 1 1 1 2 2 2 1 2 2 3 3 9 12 15 8 11 10 10 10 9 9 9 8 10 13 13 15 16 16 19 17 16 13 14 15 16 14 14 14 14 14 13 13 12
2 2 1 1 1 2 2 1 3 5 8 7 10 12 12 13 11 10 9 9 11 11 11 11 13 16 18 18 21 20 20 18 18 16 15 16 15 13 13 13 14 14 14 13 13
2 2 2 2 1 3 6 8 9 10 12 15 14 14 13 11 10 10 9 10 10 12 16 13 17 20 19 18 17 18 19 19 17 16 17 17 17 15 13 15 15 14 14 14 14
2 2 2 2 2 4 8 10 11 10 14 12 13 13 12 11 12 10 9 13 14 17 14 16 19 16 15 15 16 17 19 20 17 16 17 18 18 15 15 15 16 15 15 15 14
2 2 2 2 2 7 9 10 8 9 13 12 13 13 12 10 12 12 10 12 16 17 17 17 16 14 15 17 17 18 19 19 19 18 19 20 20 18 17 15 15 15 15 16 14
3 3 2 2 5 8 10 7 7 8 17 13 13 12 10 10 12 9 10 11 14 17 16 16 14 15 16 17 17 19 17 17 18 22 25 20 25 19 19 17 16 15 15 15 14
3 3 2 3 7 9 8 6 8 9 22 13 13 10 9 11 11 10 9 10 14 15 16 16 15 15 16 16 15 17 16 17 19 25 24 22 26 20 18 17 16 15 15 15 14
3 4 3 5 7 8 7 7 9 16 23 17 12 12 12 11 11 10 10 9 11 13 13 14 13 14 14 14 14 14 17 18 20 25 26 26 25 19 17 16 16 15 14 13 13
3 4 5 6 9 7 7 9 16 21 16 18 15 13 14 14 12 12 12 14 16 19 21 16 15 14 13 15 14 16 22 26 25 26 24 29 24 18 15 15 15 14 14 13 13
3 5 6 7 7 7 10 13 22 22 21 13 13 13 15 14 14 13 14 16 14 16 21 23 21 18 13 15 17 17 22 24 29 27 24 28 24 17 15 15 14 14 13 13 13
3 7 8 7 6 8 12 21 21 18 14 14 14 19 19 14 16 16 16 16 15 15 20 22 20 15 14 14 16 18 24 19 27 33 29 24 20 16 15 17 15 14 14 13 13
7 8 9 7 7 11 16 18 19 13 12 13 18 17 24 22 17 18 17 14 14 14 16 17 23 19 15 14 16 18 17 23 25 28 31 27 29 19 17 17 17 16 15 14 14
9 12 8 8 10 14 20 22 16 12 11 14 15 16 16 20 17 19 17 14 14 15 14 18 21 21 16 22 22 21 23 23 23 22 27 30 23 19 18 16 18 17 15 16 15
11 17 8 10 16 22 21 16 11 12 12 12 13 14 17 16 17 21 16 15 13 15 16 15 18 25 20 17 16 17 21 19 23 26 26 24 22 17 18 23 24 18 17 18 17
15 15 10 11 21 20 14 13 12 13 13 13 14 12 14 19 20 15 15 12 13 14 15 14 22 27 22 20 18 20 17 18 22 20 25 25 20 20 23 21 21 20 17 18 19
14 18 15 14 16 16 17 17 16 13 12 12 13 12 14 19 16 19 14 13 12 13 10 12 17 22 23 24 23 22 19 17 20 27 20 19 18 17 14 13 12 11 13 15 17
15 17 17 20 17 16 15 16 16 17 13 12 15 14 16 21 18 21 15 14 13 11 12 15 21 19 19 19 22 19 21 20 19 18 22 18 18 20 14 13 12 14 15 15 14
15 17 17 16 15 16 15 15 17 16 14 15 17 14 14 20 16 17 15 15 15 14 14 14 20 22 20 17 16 18 16 16 17 17 18 17 18 12 12 12 13 12 13 15 14
12 12 14 15 17 18 17 15 14 13 13 12 13 14 15 14 13 13 12 12 13 15 15 16 20 23 24 21 22 23 20 17 17 21 18 20 16 14 14 13 13 17 14 13 12